Time,TemperatureF,DewpointF,PressureIn,WindDirection,WindDirectionDegrees,WindSpeedMPH,WindSpeedGustMPH,Humidity,HourlyPrecipIn,Conditions,Clouds,dailyrainin,SoftwareType,DateUTC
2014-01-21 00:12:00,18.0,12.0,29.93,NNW,339,3.0,8.0,78,0.00,,,0.00,,2014-01-21 05:12:00,
2014-01-21 00:22:00,17.0,12.0,29.94,NNW,342,4.0,8.0,80,0.00,,,0.00,,2014-01-21 05:22:00,
2014-01-21 00:42:00,16.0,11.0,29.94,North,1,5.0,10.0,79,0.00,,,0.00,,2014-01-21 05:42:00,
2014-01-21 00:52:00,16.0,10.0,29.93,NNW,334,4.0,7.0,77,0.00,,,0.00,,2014-01-21 05:52:00,
2014-01-21 01:12:00,15.0,9.0,29.94,NW,304,4.0,9.0,77,0.00,,,0.00,,2014-01-21 06:12:00,
2014-01-21 01:22:00,15.0,9.0,29.94,NW,309,1.0,10.0,78,0.00,,,0.00,,2014-01-21 06:22:00,
2014-01-21 01:42:00,15.0,9.0,29.95,ENE,68,2.0,7.0,77,0.00,,,0.00,,2014-01-21 06:42:00,
2014-01-21 01:52:00,15.0,9.0,29.95,NE,34,2.0,10.0,75,0.00,,,0.00,,2014-01-21 06:52:00,
2014-01-21 02:11:00,14.0,8.0,29.94,NNE,18,3.0,9.0,75,0.00,,,0.00,,2014-01-21 07:11:00,
2014-01-21 02:22:00,14.0,8.0,29.95,North,355,2.0,6.0,75,0.00,,,0.00,,2014-01-21 07:22:00,
2014-01-21 02:42:00,14.0,8.0,29.95,NW,321,1.0,7.0,75,0.00,,,0.00,,2014-01-21 07:42:00,
2014-01-21 02:53:00,14.0,7.0,29.96,NW,316,1.0,5.0,74,0.00,,,0.00,,2014-01-21 07:53:00,
2014-01-21 03:12:00,14.0,7.0,29.95,NE,37,1.0,6.0,74,0.00,,,0.00,,2014-01-21 08:12:00,
2014-01-21 03:22:00,14.0,7.0,29.96,NNW,341,3.0,6.0,73,0.00,,,0.00,,2014-01-21 08:22:00,
2014-01-21 03:42:00,13.0,5.0,29.96,NNE,31,2.0,7.0,71,0.00,,,0.00,,2014-01-21 08:42:00,
2014-01-21 03:52:00,13.0,6.0,29.95,North,1,2.0,7.0,73,0.00,,,0.00,,2014-01-21 08:52:00,
2014-01-21 04:11:00,13.0,5.0,29.94,NNE,19,5.0,10.0,70,0.00,,,0.00,,2014-01-21 09:11:00,
2014-01-21 04:22:00,13.0,5.0,29.93,NNW,338,4.0,13.0,70,0.00,,,0.00,,2014-01-21 09:22:00,
2014-01-21 04:43:00,13.0,5.0,29.93,North,349,2.0,9.0,69,0.00,,,0.00,,2014-01-21 09:43:00,
2014-01-21 04:53:00,13.0,4.0,29.92,NNE,13,0.0,7.0,68,0.00,,,0.00,,2014-01-21 09:53:00,
2014-01-21 05:13:00,12.0,4.0,29.92,NNW,339,3.0,9.0,68,0.00,,,0.00,,2014-01-21 10:13:00,
2014-01-21 05:23:00,12.0,4.0,29.93,North,359,4.0,12.0,68,0.00,,,0.00,,2014-01-21 10:23:00,
2014-01-21 05:42:00,12.0,4.0,29.92,NNE,19,4.0,10.0,68,0.00,,,0.00,,2014-01-21 10:42:00,
2014-01-21 05:52:00,12.0,4.0,29.91,NNE,18,6.0,12.0,69,0.00,,,0.00,,2014-01-21 10:52:00,
2014-01-21 06:12:00,12.0,4.0,29.92,NNE,14,3.0,7.0,70,0.00,,,0.00,,2014-01-21 11:12:00,
2014-01-21 06:22:00,12.0,4.0,29.94,NNW,347,1.0,6.0,71,0.00,,,0.00,,2014-01-21 11:22:00,
2014-01-21 06:42:00,12.0,5.0,29.93,NNW,346,2.0,7.0,73,0.00,,,0.00,,2014-01-21 11:42:00,
2014-01-21 06:52:00,12.0,6.0,29.93,NNE,18,1.0,6.0,75,0.00,,,0.00,,2014-01-21 11:52:00,
2014-01-21 07:11:00,11.0,6.0,29.94,North,354,0.0,5.0,78,0.00,,,0.00,,2014-01-21 12:11:00,
2014-01-21 07:22:00,11.0,6.0,29.94,ENE,58,2.0,9.0,79,0.00,,,0.00,,2014-01-21 12:22:00,
2014-01-21 07:42:00,10.0,5.0,29.95,North,359,4.0,9.0,80,0.00,,,0.00,,2014-01-21 12:42:00,
2014-01-21 07:52:00,10.0,6.0,29.94,NNW,335,5.0,10.0,83,0.00,,,0.00,,2014-01-21 12:52:00,
2014-01-21 08:11:00,9.0,5.0,29.95,NNW,340,0.0,9.0,85,0.00,,,0.00,,2014-01-21 13:11:00,
2014-01-21 08:22:00,9.0,6.0,29.95,NNE,29,4.0,11.0,86,0.00,,,0.00,,2014-01-21 13:22:00,
2014-01-21 08:42:00,9.0,6.0,29.96,NNE,12,5.0,10.0,88,0.00,,,0.00,,2014-01-21 13:42:00,
2014-01-21 08:52:00,9.0,6.0,29.97,North,6,8.0,13.0,88,0.00,,,0.00,,2014-01-21 13:52:00,
2014-01-21 09:11:00,8.0,5.0,29.98,North,356,3.0,10.0,88,0.00,,,0.00,,2014-01-21 14:11:00,
2014-01-21 09:22:00,8.0,5.0,29.98,North,351,9.0,16.0,87,0.00,,,0.00,,2014-01-21 14:22:00,
2014-01-21 09:42:00,8.0,5.0,29.99,North,353,7.0,17.0,86,0.00,,,0.00,,2014-01-21 14:42:00,
2014-01-21 09:52:00,7.0,4.0,30.00,NNE,20,6.0,15.0,86,0.00,,,0.00,,2014-01-21 14:52:00,
2014-01-21 10:11:00,7.0,4.0,30.00,NNE,29,5.0,13.0,87,0.00,,,0.00,,2014-01-21 15:11:00,
2014-01-21 10:22:00,7.0,4.0,30.00,NNE,22,3.0,10.0,86,0.00,,,0.00,,2014-01-21 15:22:00,
2014-01-21 10:43:00,7.0,3.0,30.01,North,10,4.0,9.0,85,0.00,,,0.00,,2014-01-21 15:43:00,
2014-01-21 10:53:00,7.0,3.0,30.01,NNE,17,3.0,10.0,85,0.00,,,0.00,,2014-01-21 15:53:00,
2014-01-21 11:13:00,7.0,3.0,30.01,North,354,2.0,9.0,84,0.00,,,0.00,,2014-01-21 16:13:00,
2014-01-21 11:23:00,7.0,3.0,30.01,NNE,22,5.0,10.0,83,0.00,,,0.00,,2014-01-21 16:23:00,
2014-01-21 11:43:00,7.0,3.0,30.01,NNE,28,6.0,10.0,83,0.00,,,0.00,,2014-01-21 16:43:00,
2014-01-21 11:52:00,8.0,4.0,30.01,North,359,3.0,8.0,83,0.00,,,0.00,,2014-01-21 16:52:00,
2014-01-21 12:12:00,8.0,4.0,30.00,NNE,32,0.0,4.0,82,0.00,,,0.00,,2014-01-21 17:12:00,
2014-01-21 12:22:00,8.0,4.0,30.00,NE,43,2.0,6.0,82,0.00,,,0.00,,2014-01-21 17:22:00,
2014-01-21 12:42:00,8.0,4.0,30.00,NNW,336,1.0,6.0,83,0.00,,,0.00,,2014-01-21 17:42:00,
2014-01-21 12:53:00,9.0,5.0,29.99,North,350,1.0,9.0,83,0.00,,,0.00,,2014-01-21 17:53:00,
2014-01-21 13:12:00,8.0,4.0,29.99,NNE,27,4.0,7.0,82,0.00,,,0.00,,2014-01-21 18:12:00,
2014-01-21 13:22:00,9.0,4.0,29.98,NNE,25,3.0,8.0,81,0.00,,,0.00,,2014-01-21 18:22:00,
2014-01-21 13:42:00,8.0,4.0,29.98,NNE,26,4.0,9.0,82,0.00,,,0.00,,2014-01-21 18:42:00,
2014-01-21 13:52:00,9.0,4.0,29.97,North,2,5.0,11.0,78,0.00,,,0.00,,2014-01-21 18:52:00,
2014-01-21 14:11:00,8.0,2.0,29.96,North,11,4.0,9.0,76,0.00,,,0.00,,2014-01-21 19:11:00,
2014-01-21 14:22:00,9.0,2.0,29.96,NNE,26,8.0,15.0,72,0.00,,,0.00,,2014-01-21 19:22:00,
2014-01-21 14:42:00,9.0,1.0,29.96,NE,37,6.0,13.0,70,0.00,,,0.00,,2014-01-21 19:42:00,
2014-01-21 14:52:00,9.0,1.0,29.96,NE,37,6.0,13.0,70,0.00,,,0.00,,2014-01-21 19:52:00,
2014-01-21 15:11:00,9.0,0.0,29.95,NE,40,8.0,14.0,66,0.00,,,0.00,,2014-01-21 20:11:00,
2014-01-21 15:22:00,9.0,0.0,29.95,North,9,6.0,17.0,65,0.00,,,0.00,,2014-01-21 20:22:00,
2014-01-21 15:52:00,8.0,-2.0,29.96,NNE,21,5.0,16.0,63,0.00,,,0.00,,2014-01-21 20:52:00,
2014-01-21 16:11:00,8.0,-2.0,29.96,NNE,20,4.0,17.0,63,0.00,,,0.00,,2014-01-21 21:11:00,
2014-01-21 16:22:00,8.0,-2.0,29.96,North,356,5.0,17.0,64,0.00,,,0.00,,2014-01-21 21:22:00,
2014-01-21 16:43:00,8.0,-1.0,29.96,North,8,7.0,15.0,66,0.00,,,0.00,,2014-01-21 21:43:00,
2014-01-21 16:53:00,8.0,-1.0,29.96,NE,37,7.0,18.0,67,0.00,,,0.00,,2014-01-21 21:53:00,
2014-01-21 17:13:00,7.0,-1.0,29.96,NNE,25,9.0,20.0,68,0.00,,,0.00,,2014-01-21 22:13:00,
2014-01-21 17:23:00,7.0,-1.0,29.97,North,6,6.0,22.0,69,0.00,,,0.00,,2014-01-21 22:23:00,
2014-01-21 17:42:00,6.0,-2.0,29.98,NNE,20,9.0,17.0,70,0.00,,,0.00,,2014-01-21 22:42:00,
2014-01-21 17:53:00,5.0,-2.0,29.98,NNW,338,9.0,18.0,71,0.00,,,0.00,,2014-01-21 22:53:00,
2014-01-21 18:12:00,5.0,-2.0,29.99,NNW,339,9.0,18.0,71,0.00,,,0.00,,2014-01-21 23:12:00,
2014-01-21 18:22:00,4.0,-3.0,30.00,North,353,8.0,17.0,73,0.00,,,0.00,,2014-01-21 23:22:00,
2014-01-21 18:42:00,4.0,-2.0,30.01,NW,311,7.0,18.0,74,0.00,,,0.00,,2014-01-21 23:42:00,
2014-01-21 18:52:00,3.0,-3.0,30.01,NE,52,7.0,16.0,74,0.00,,,0.00,,2014-01-21 23:52:00,
2014-01-21 19:11:00,3.0,-3.0,30.03,North,356,7.0,17.0,75,0.00,,,0.00,,2014-01-22 00:11:00,
2014-01-21 19:22:00,2.0,-4.0,30.03,NNW,331,5.0,18.0,76,0.00,,,0.00,,2014-01-22 00:22:00,
2014-01-21 19:42:00,2.0,-4.0,30.03,North,6,4.0,18.0,77,0.00,,,0.00,,2014-01-22 00:42:00,
2014-01-21 19:52:00,1.0,-4.0,30.04,NNW,348,7.0,16.0,78,0.00,,,0.00,,2014-01-22 00:52:00,
2014-01-21 20:12:00,1.0,-4.0,30.05,NNE,33,6.0,16.0,78,0.00,,,0.00,,2014-01-22 01:12:00,
2014-01-21 20:22:00,1.0,-4.0,30.05,NE,42,4.0,15.0,79,0.00,,,0.00,,2014-01-22 01:22:00,
2014-01-21 20:42:00,1.0,-4.0,30.05,NNW,345,10.0,16.0,78,0.00,,,0.00,,2014-01-22 01:42:00,
2014-01-21 20:52:00,0.0,-5.0,30.05,NE,36,6.0,16.0,79,0.00,,,0.00,,2014-01-22 01:52:00,
2014-01-21 21:11:00,0.0,-5.0,30.06,NNW,344,9.0,16.0,78,0.00,,,0.00,,2014-01-22 02:11:00,
2014-01-21 21:22:00,0.0,-5.0,30.05,North,4,9.0,17.0,78,0.00,,,0.00,,2014-01-22 02:22:00,
2014-01-21 21:42:00,0.0,-5.0,30.06,NNE,27,8.0,17.0,77,0.00,,,0.00,,2014-01-22 02:42:00,
2014-01-21 21:52:00,0.0,-5.0,30.06,North,358,11.0,17.0,77,0.00,,,0.00,,2014-01-22 02:52:00,
2014-01-21 22:12:00,0.0,-6.0,30.06,West,269,10.0,18.0,76,0.00,,,0.00,,2014-01-22 03:12:00,
2014-01-21 22:22:00,0.0,-6.0,30.07,NE,47,6.0,17.0,76,0.00,,,0.00,,2014-01-22 03:22:00,
2014-01-21 22:43:00,-1.0,-6.0,30.07,NNW,338,5.0,14.0,77,0.00,,,0.00,,2014-01-22 03:43:00,
2014-01-21 22:54:00,-1.0,-6.0,30.06,North,350,9.0,17.0,77,0.00,,,0.00,,2014-01-22 03:54:00,
2014-01-21 23:13:00,-1.0,-7.0,30.06,NNW,347,12.0,24.0,75,0.00,,,0.00,,2014-01-22 04:13:00,
2014-01-21 23:23:00,-2.0,-8.0,30.06,NE,34,8.0,18.0,75,0.00,,,0.00,,2014-01-22 04:23:00,
2014-01-21 23:42:00,-2.0,-8.0,30.07,North,8,6.0,17.0,76,0.00,,,0.00,,2014-01-22 04:42:00,
2014-01-21 23:53:00,-3.0,-9.0,30.06,NNW,338,10.0,16.0,76,0.00,,,0.00,,2014-01-22 04:53:00,